Location: El Limón
(10.3059°N, 67.6321°W)
Time: 13:29:58
(UTC+00:00)

SJ-6F - Pass Details

Date: 14 April 2024
Orbit: 559 x 581 km, 97.9° (Epoch: 28 May)

Event Time Altitude Azimuth Distance (km) Brightness Sun altitude
Rises 09:50:11 0° 10° (N) 2,735 8.2 -8.1°
Maximum altitude 09:56:17 84° 283° (WNW) 564 4.3 -6.6°
Drops below altitude 10° 10:00:16 10° 194° (SSW) 1,840 6.8 -5.7°
Sets 10:02:24 0° 193° (SSW) 2,736 7.6 -5.1°
